Find Starlink 31810

NORAD ID: 59799 Int'l Des: 2024-093 Owner: SPXS Country: US Constellation: starlink operational
LEOCIRCULAR

当前视图

正在加载3D地球...

About Starlink 31810

Starlink 31810 (NORAD 59799) is a starlink constellation satellite (v2 mini) launched May 18, 2024 by SPXS of US. It operates in LEO, CIRCULAR orbit with a mass of 730.00 kg.

即将过境

Passes for default location (London). Set your location on the main map for personalized predictions.

高度历史

Loading altitude history...

两行轨道根数

1 59799U 24093T 26236.34339638 -.00001433 00000-0 -42569-4 0 9998
2 59799 43.0035 342.2643 0000635 241.2067 118.8721 15.27582932128335
Epoch: Aug 24, 2026 • Age: 17 hours

当前状态

高度 486.0 km
远地点 / 近地点 N/A
速度 7.62 km/s
星下点 -16.35°S, 169.07°W
发射日期 May 18, 2024
运行时间 2.2 years
类型 internet

技术详情

分类 Payload
质量 730.00 kg
干质量 700.00 kg
总质量 730.00 kg
长度 0.30 m
直径 4.10 m
跨度 29.00 m
形状 Box + pan
制造商 SPXS
平台类型 Starlink V2M
阶段状态 In Orbit
所有者/国家 SPXS/US

Most Searched